#timestamp,LO_Frequency,Hit,StdDev 
1503774015.8,286047004.3,Y,0.0
1503774035.6,286047000.3,P,0.5
1503774055.5,286047000.2,N,0.5
1503774075.3,286047000.9,N,0.4
1503774095.1,286047000.5,N,0.4
1503774115.9,286047002.8,Y,0.0
1503774135.7,286047000.3,P,0.2
1503774155.5,286047000.5,N,0.1
1503774175.4,286047002.3,P,0.8
1503774195.2,286047000.1,N,0.8
1503774215.0,286047002.3,N,0.9
1503774215.9,286047002.3,N,1.0
1503774235.8,286047002.7,N,1.0
1503774255.6,286047001.8,N,1.0
1503774275.5,286047001.4,N,0.9
1503774295.3,286047002.3,N,0.9
1503774315.1,286047002.6,N,0.9
1503774335.9,286047001.5,N,0.9
1503774355.7,286046999.8,N,1.0
1503774375.5,286047000.2,N,1.0
1503774395.4,286047000.8,N,1.0
1503774415.2,286047002.4,N,1.0
1503774435.0,286047002.7,N,1.0
1503774435.9,286047002.7,N,1.0
1503774455.8,286047001.4,N,1.0
1503774475.6,286047002.5,N,1.0
1503774495.4,286047002.7,N,1.0
1503774515.3,286047002.4,N,1.0
1503774535.1,286047001.4,N,1.0
1503774536.0,286047001.4,N,0.9
1503774555.8,286047001.8,N,0.9
1503774575.7,286047004.0,Y,0.0
1503774595.5,286047000.0,P,0.8
1503774615.3,286047000.4,N,0.7
1503774635.2,286047000.9,N,0.6
1503774655.0,286047000.7,N,0.6
1503774655.9,286047000.7,N,0.5
1503774675.7,286046999.0,N,0.8
1503774695.6,286046998.2,N,1.0
1503774715.4,286046999.2,N,1.0
1503774735.2,286046998.3,N,1.1
1503774755.1,286046998.5,N,1.1
1503774756.0,286046998.5,N,1.1
1503774775.8,286046998.4,N,1.1
1503774795.7,286046998.3,N,1.2
1503774815.5,286046998.7,N,1.1
1503774835.3,286047000.5,N,1.1
1503774855.2,286046999.9,N,1.1
1503774875.9,286047001.2,N,1.1
1503774895.7,286047000.7,N,1.1
1503774915.6,286046999.8,N,1.1
1503774935.4,286047002.7,N,1.3
1503774955.2,286047002.8,N,1.4
1503774975.1,286046999.9,N,1.3
1503774976.0,286046999.9,N,1.3
1503774995.8,286047002.3,N,1.4
1503775015.6,286047002.4,N,1.4
1503775035.5,286047002.7,N,1.5
1503775055.3,286046999.7,N,1.4
1503775075.1,286046999.8,N,1.4
1503775095.9,286046999.9,N,1.4
1503775115.7,286046999.8,N,1.4
1503775135.5,286046999.8,N,1.4
1503775155.4,286047002.1,N,1.4
1503775175.2,286047001.6,N,1.4
1503775195.0,286047001.4,N,1.5
1503775195.9,286047001.4,N,1.5
1503775215.8,286047001.4,N,1.5
1503775235.6,286047004.2,N,1.6
1503775255.5,286047003.5,N,1.6
1503775275.3,286047001.3,N,1.6
1503775295.1,286047004.2,N,1.6
1503775315.9,286047004.2,N,1.7
1503775335.7,286047003.8,N,1.6
1503775355.5,286047003.1,N,1.6
1503775375.4,286047003.0,N,1.5
1503775395.2,286047005.2,Y,0.0
1503775415.0,286047003.7,P,1.0
1503775415.9,286047003.7,P,1.0
1503775435.8,286047003.8,P,0.9
1503775455.6,286047001.3,N,1.1
1503775475.4,286047004.0,Y,0.0
1503775495.3,286047000.5,P,1.2
1503775515.1,286047001.1,N,1.0
1503775535.9,286047000.2,N,1.0
1503775555.7,286046999.8,N,1.1
1503775575.5,286047000.2,N,1.0
1503775595.4,286046999.8,N,1.0
1503775615.2,286047011.9,Y,0.0
1503775635.0,286047000.3,P,0.2
1503775635.9,286047000.3,N,0.2
1503775655.8,286047000.0,N,0.2
1503775675.6,286046999.8,N,0.3
1503775695.4,286047002.4,Y,0.0
1503775715.3,286047000.4,P,0.1
1503775735.1,286047002.8,P,1.2
1503775755.8,286047002.7,N,1.2
1503775775.7,286047000.2,N,1.2
1503775795.5,286047000.3,N,1.2
1503775815.3,286047002.6,N,1.2
1503775835.2,286046999.7,N,1.2
1503775855.0,286046999.8,N,1.2
1503775855.9,286046999.8,N,1.2
1503775875.7,286046999.8,N,1.2
1503775895.6,286047002.8,N,1.3
1503775915.4,286047002.4,N,1.3
1503775935.3,286047002.4,N,1.3
1503775955.1,286047002.1,N,1.3
1503775956.0,286047002.1,N,1.3
1503775975.8,286047001.4,N,1.2
1503775995.7,286047002.2,N,1.2
1503776015.5,286047002.7,N,1.2
1503776035.3,286047002.3,N,1.2
1503776055.2,286047002.1,N,1.2
1503776075.9,286047002.2,N,1.2
1503776095.7,286047000.1,N,1.2
1503776115.6,286047002.6,N,1.2
1503776135.4,286047001.9,N,1.1
1503776155.2,286047004.0,Y,0.0
1503776175.1,286047002.7,P,0.6
1503776176.0,286047002.7,P,0.6
1503776195.8,286047000.4,N,1.0
1503776215.6,286046999.8,N,1.2
1503776235.5,286046999.8,N,1.2
1503776255.3,286047002.0,N,1.2
1503776275.1,286047001.9,N,1.1
1503776295.9,286047003.5,Y,0.0
1503776315.7,286047004.0,P,1.3
1503776335.6,286047001.8,N,1.2
1503776355.4,286047003.8,P,1.2
1503776405.3,286047003.7,E,nan
1503776415.2,286047002.6,N,0.0
1503776435.0,286047000.5,P,1.1
1503776435.9,286047000.5,N,1.0
1503776455.8,286047002.7,N,1.1
1503776475.6,286047002.8,N,1.1
1503776495.4,286047002.3,N,1.0
1503776515.3,286047000.1,N,1.1
1503776535.1,286047002.6,N,1.1
1503776536.0,286047002.6,N,1.1
1503776555.8,286046999.8,N,1.2
1503776575.7,286047002.1,N,1.1
1503776595.5,286047002.4,N,1.1
1503776615.3,286046999.7,N,1.2
1503776635.2,286047002.7,N,1.2
1503776655.9,286047002.3,N,1.2
1503776675.7,286047002.3,N,1.1
1503776695.6,286042519.6,Y,0.0
1503776715.4,286047001.0,P,0.4
1503776735.2,286047000.6,N,0.5
1503776755.1,286047000.3,N,0.5
1503776756.0,286047000.3,N,0.5
1503776775.8,286047000.3,N,0.5
1503776795.7,286047000.0,N,0.5
1503776815.5,286047000.4,N,0.5
1503776835.3,286046999.9,N,0.5
1503776855.2,286047002.7,Y,0.0
1503776875.9,286047000.6,P,0.0
1503776895.7,286047000.5,P,0.0
1503776915.6,286047000.0,N,0.2
1503776935.4,286046999.9,N,0.3
1503776955.2,286047002.8,Y,0.0
1503776975.1,286046999.7,P,0.3
1503776976.0,286046999.7,N,0.3
1503776995.8,286047002.4,P,1.1
1503777015.6,286046999.7,N,1.0
1503777035.5,286046999.9,N,1.0
1503777055.3,286047000.7,N,0.9
1503777075.1,286047000.9,N,0.9
1503777095.9,286047000.9,N,0.8
1503777115.7,286682705.9,Y,0.0
1503777135.5,286047000.4,P,0.0
1503777155.4,286047002.2,P,0.8
1503777175.2,286047002.6,P,1.0
1503777195.1,286047002.7,N,1.0
1503777196.0,286047002.7,N,1.0
1503777215.8,286047002.3,N,1.0
1503777235.6,286047000.0,N,1.1
1503777255.5,286047001.0,N,1.0
1503777275.3,286046998.3,N,1.4
1503777295.1,286046998.6,N,1.5
1503777315.9,286046999.5,N,1.5
1503777335.7,286046998.4,N,1.6
1503777355.5,286046999.0,N,1.6
1503777375.4,286046996.7,N,1.8
1503777395.2,286046997.0,N,2.0
1503777415.0,286046997.1,N,2.0
1503777415.9,286046997.1,N,2.1
1503777435.8,286046997.8,N,2.1
1503777455.6,286046997.0,N,2.1
1503777475.4,286682702.2,Y,0.0
1503777495.3,286046998.9,P,0.3
1503777515.1,286046996.6,P,1.3
1503777516.0,286046996.6,N,1.3
1503777535.8,286046999.6,N,1.4
1503777555.7,286046998.9,N,1.3
1503777575.5,286046998.9,N,1.2
1503777595.3,286046998.4,N,1.1
